Home   Weather   Balurghat   Past weeks

Flag for India Past Weather in Balurghat, West Bengal, India — Yesterday and Last 2 Weeks

Now
77 °F

Haze.


Feels Like: 79 °F
Forecast: 56 / 86 °F
Wind: 7 mph from Northwest

Location: Lucknow / Amausi

Current Time: Jan 24, 2017 at 12:57:09 pm

Latest Report: Jan 24, 2017 at 12:00 pm


Visibility: 1 mi

Pressure: 30.09 "Hg

Humidity: 47%

Dew Point: 55 °F

Location of BalurghatLocation

Past Weather in Balurghat — Graph

°F

Balurghat Temperature Yesterday

Maximum temperature yesterday: 81 °F (at 1:30 pm)
Minimum temperature yesterday: 50 °F (at 5:30 am)
Average temperature yesterday: 65 °F

High & Low Weather Summary for the Past Weeks

 TemperatureHumidityPressure
High81 °F (Jan 23, 1:30 pm)100% (Jan 13, 7:30 am)30.21 "Hg (Jan 13, 7:30 am)
Low36 °F (Jan 12, 5:00 am)29% (Jan 10, 1:00 pm)29.83 "Hg (Jan 21, 12:00 am)
Average57 °F69%30.05 "Hg
* Reported Jan 9 11:30 am — Jan 24 12:00 pm, Balurghat, Weather by CustomWeather, © 2017

Note: Actual official high and low records may vary slightly from our data, if they occured in-between our weather recording intervals... More about our weather records

Advertising

Balurghat Weather History for the Previous 24 Hours

Scroll right to see more
 ConditionsComfort  
Time TempWeatherWind HumidityBarometerVisibility
12:00 pm
Tue, Jan 24
77 °FHaze.7 mph47%30.09 "Hg1 mi
11:00 am72 °FHaze.5 mph53%30.12 "Hg1 mi
10:30 am68 °FHaze.5 mph64%30.15 "Hg1 mi
10:00 am64 °FHaze.5 mph78%30.15 "Hg1 mi
9:30 am63 °FHaze.5 mph88%30.12 "Hg1 mi
9:00 am61 °FHaze.2 mph94%30.12 "Hg1 mi
8:00 am54 °FFog.2 mph100%30.09 "Hg1 mi
7:30 am52 °FFog.2 mph100%30.07 "Hg1 mi
7:00 am54 °FFog.2 mph94%30.07 "Hg1 mi
6:00 am52 °FFog.5 mph100%30.01 "Hg1 mi
5:00 am54 °FFog.5 mph94%30.01 "Hg1 mi
4:00 am54 °FFog.2 mph100%30.01 "Hg1 mi
2:00 am55 °FFog.3 mph94%30.04 "Hg1 mi
1:00 am55 °FFog.2 mph94%30.04 "Hg1 mi
12:00 am57 °FFog.2 mph88%30.04 "Hg1 mi
11:00 pm
Mon, Jan 23
59 °FFog.3 mph88%30.04 "Hg1 mi
10:00 pm63 °FFog.3 mph83%30.04 "Hg1 mi
9:00 pm63 °FFog.3 mph83%30.04 "Hg1 mi
7:30 pm66 °FHaze.3 mph73%30.01 "Hg1 mi
7:00 pm68 °FHaze.3 mph69%30.01 "Hg1 mi
6:30 pm70 °FHaze.6 mph64%30.01 "Hg1 mi
5:30 pm73 °FHaze.8 mph57%30.01 "Hg1 mi
5:00 pm77 °FHaze.9 mph51%30.01 "Hg1 mi
4:30 pm77 °FHaze.12 mph51%30.01 "Hg2 mi
4:00 pm79 °FHaze.12 mph48%30.01 "Hg2 mi
2:30 pm81 °FHaze.13 mph42%30.04 "Hg2 mi
2:00 pm81 °FHaze.12 mph42%30.04 "Hg2 mi
1:30 pm81 °FHaze.12 mph42%30.04 "Hg2 mi
1:00 pm79 °FHaze.9 mph42%30.07 "Hg1 mi
12:30 pm77 °FHaze.12 mph44%30.09 "Hg1 mi
12:00 pm75 °FHaze.12 mph47%30.09 "Hg1 mi
Weather by CustomWeather, © 2017

See weather overviewHow to use our weather pages